Location: Beekmeers
(50.8953°N, 3.6968°E)
Time: 03:02:39
(UTC+00:00)

Cosmos 1190 Rocket - Pass Details

Date: 23 May 2024
Orbit: 754 x 778 km, 74.1° (Epoch: 17 June)

Event Time Altitude Azimuth Distance (km) Brightness Sun altitude
Exits shadow 00:51:13 28° 208° (SSW) 1,411 4.8 -16.9°
Maximum altitude 00:54:03 83° 295° (WNW) 787 4.0 -16.7°
Drops below altitude 10° 00:59:23 10° 23° (NNE) 2,339 7.9 -16.5°
Sets 01:01:47 0° 25° (NNE) 3,272 9.1 -16.3°
